sat.trackr.live / text

‹ back to catalog

CUBESX-HSE 3 (RS42S)

NORAD 57178 · 2023-091N

PAYLOAD ACTIVE UNKNOWN

§ Identity

Operator
Country
CIS
Launch date
2023-06-27
Launch site
VOSTO
Launch vehicle
Mass (kg)
RCS (m²)

Purposes: comms

External: N2YO · Heavens-Above · Gunter

§ Orbital elements

Epoch: 2026-05-25T03:59:01.801248Z

Period
94.08 min
Inclination
97.5104°
Eccentricity
0.0011522
Mean motion
15.30537143 rev/d
Perigee alt
466.3 km
Apogee alt
482.1 km
Semi-major
6,852.3 km
B*
4.4094e-4
RAAN
210.4724°
Arg perigee
166.5947°
Mean anomaly
193.5602°
Rev number
16,090

§ Raw data

CUBESX-HSE 3 (RS42S)1 57178U 23091N   26145.16599307  .00012974  00000+0  44094-3 0  99972 57178  97.5104 210.4724 0011522 166.5947 193.5602 15.30537143160909

JSON: /api/v1/satellites/57178 · /tle

For live sub-satellite position, see the globe view (requires WebGL).

§ Visibility from observer

Set your observer location to see the next 7 days of passes ≥ 10°. The values pass through the URL so the page stays shareable.

No JS? Fill the form by hand. The geolocation button needs JavaScript.

§ Radio — SatNOGS DB

ModeDescriptionDownlinkUplink
GMSK USP Mode U - GMSK 4k8 (USP FEC) TLM 436.570 MHz

1 transmitter · refreshed weekly from db.satnogs.org